Idabel, OK

8:04 PM CST on February 09, 2016 (GMT -0600)
Idabel

Weather History for K4O4 - June, 2014

Change the Weather History Date:

Thursday, June 19, 2014

  Actual Average (KDEQ) Record (KDEQ)
Temperature  
Mean Temperature 81 °F 79 °F  
Max Temperature 91 °F 90 °F 101 °F (1953)
Min Temperature 71 °F 68 °F 57 °F (1945)
Degree Days  
Heating Degree Days 0 0  
Month to date heating degree days 0  
Since 1 June heating degree days 0  
Since 1 July heating degree days 3042  
Cooling Degree Days 16 14  
Month to date cooling degree days 216  
Year to date cooling degree days 433  
Since 1 June cooling degree days 216  
Growing Degree Days 31 (Base 50)    
Moisture  
Dew Point 69 °F    
Average Humidity 69    
Maximum Humidity 94    
Minimum Humidity 43    
Precipitation  
Precipitation 0.00 in 0.18 in 1.40 in (1949)
Month to date precipitation 2.87  
Year to date precipitation 24.00  
Snow  
Snow 0.00 in - - ()
Month to date snowfall  
Since 1 June snowfall  
Since 1 July snowfall  
Snow Depth -    
Sea Level Pressure  
Sea Level Pressure 30.05 in    
Wind  
Wind Speed 7 mph (South)    
Max Wind Speed 13 mph    
Max Gust Speed 18 mph    
Visibility 10 miles    
Events      
T = Trace of Precipitation, MM = Missing Value Source: NWS Daily Summary

Daily Weather History Graph

Daily Weather History Graph

Search for Another Location

Airport or City:

Trip Planner

Search our weather history database for the weather conditions in past years. The results will help you decide how hot, cold, wet, or windy it might be!

Date:

Astronomy

Jun. 19, 2014 Rise Set
Actual Time 6:08 AM CDT 8:33 PM CDT
Civil Twilight 5:39 AM CDT 9:02 PM CDT
Nautical Twilight 5:03 AM CDT 9:38 PM CDT
Astronomical Twilight 4:24 AM CDT 10:17 PM CDT
Moon 12:55 AM CDT (6/19) 1:20 PM CDT (6/19)
Length of Visible Light 15h 23m
Length of Day
14h 24m
Waning Gibbous, 51% of the Moon is Illuminated
Jun 19
Waning Gibbous
Jun 19
Last Quarter
Jun 27
New
Jul 5
First Quarter
Jul 12
Full

Hourly Weather History & Observations

Time (CDT) Temp. Heat Index Dew Point Humidity Pressure Visibility Wind Dir Wind Speed Gust Speed Precip Events Conditions
12:02 AM 73.4 °F - 66.2 °F 78% 30.02 in 10.0 mi SSE 5.8 mph - N/A   Clear
12:22 AM 73.4 °F - 66.2 °F 78% 30.02 in 10.0 mi South 5.8 mph - N/A   Clear
12:43 AM 73.4 °F - 66.2 °F 78% 30.02 in 10.0 mi South 8.1 mph - N/A   Clear
1:01 AM 73.4 °F - 66.2 °F 78% 30.02 in 10.0 mi South 8.1 mph - N/A   Clear
1:21 AM 75.2 °F - 66.2 °F 73% 30.02 in 10.0 mi SSE 9.2 mph - N/A   Clear
1:41 AM 73.4 °F - 68.0 °F 83% 30.02 in 10.0 mi SSE 9.2 mph - N/A   Clear
2:01 AM 73.4 °F - 68.0 °F 83% 30.01 in 10.0 mi South 9.2 mph - N/A   Clear
2:21 AM 73.4 °F - 68.0 °F 83% 30.01 in 10.0 mi South 10.4 mph - N/A   Clear
2:41 AM 73.4 °F - 68.0 °F 83% 30.00 in 10.0 mi South 9.2 mph - N/A   Clear
3:01 AM 73.4 °F - 68.0 °F 83% 30.01 in 10.0 mi South 8.1 mph - N/A   Clear
3:21 AM 73.4 °F - 69.8 °F 88% 30.01 in 10.0 mi South 9.2 mph - N/A   Clear
3:41 AM 73.4 °F - 69.8 °F 88% 30.00 in 10.0 mi South 9.2 mph - N/A   Clear
4:01 AM 73.4 °F - 69.8 °F 88% 30.00 in 10.0 mi South 9.2 mph - N/A   Clear
4:21 AM 73.4 °F - 69.8 °F 88% 30.00 in 10.0 mi South 8.1 mph - N/A   Clear
5:23 AM 71.6 °F - 69.8 °F 94% 30.02 in 10.0 mi South 6.9 mph - N/A   Clear
5:41 AM 71.6 °F - 69.8 °F 94% 30.02 in 10.0 mi South 6.9 mph - N/A   Clear
6:01 AM 71.6 °F - 69.8 °F 94% 30.03 in 10.0 mi South 8.1 mph - N/A   Clear
6:21 AM 71.6 °F - 69.8 °F 94% 30.03 in 10.0 mi South 8.1 mph - N/A   Clear
6:41 AM 71.6 °F - 69.8 °F 94% 30.03 in 7.0 mi South 5.8 mph - N/A   Clear
7:01 AM 73.4 °F - 69.8 °F 88% 30.04 in 10.0 mi South 5.8 mph - N/A   Clear
7:21 AM 73.4 °F - 71.6 °F 94% 30.05 in 10.0 mi South 4.6 mph - N/A   Clear
7:41 AM 73.4 °F - 71.6 °F 94% 30.06 in 10.0 mi South 5.8 mph - N/A   Clear
8:01 AM 75.2 °F - 71.6 °F 89% 30.06 in 10.0 mi South 5.8 mph - N/A   Scattered Clouds
8:21 AM 77.0 °F - 71.6 °F 83% 30.07 in 10.0 mi SW 5.8 mph - N/A   Scattered Clouds
8:41 AM 78.8 °F - 71.6 °F 78% 30.09 in 10.0 mi SW 9.2 mph - N/A   Overcast
9:01 AM 78.8 °F - 71.6 °F 78% 30.09 in 10.0 mi SW 8.1 mph - N/A   Overcast
9:21 AM 78.8 °F - 71.6 °F 78% 30.09 in 10.0 mi SSW 10.4 mph - N/A   Overcast
10:01 AM 80.6 °F 83.9 °F 69.8 °F 70% 30.09 in 10.0 mi SSW 9.2 mph 18.4 mph N/A   Scattered Clouds
10:21 AM 82.4 °F 86.3 °F 69.8 °F 66% 30.09 in 10.0 mi SSW 9.2 mph - N/A   Scattered Clouds
10:41 AM 82.4 °F 86.3 °F 69.8 °F 66% 30.10 in 10.0 mi SSW 10.4 mph - N/A   Scattered Clouds
11:01 AM 84.2 °F 88.4 °F 69.8 °F 62% 30.10 in 7.0 mi SSW 10.4 mph - N/A   Scattered Clouds
11:21 AM 86.0 °F 90.4 °F 69.8 °F 58% 30.10 in 10.0 mi SSW 12.7 mph 16.1 mph N/A   Scattered Clouds
11:41 AM 87.8 °F 92.6 °F 69.8 °F 55% 30.11 in 10.0 mi WSW 10.4 mph 17.3 mph N/A   Scattered Clouds
12:01 PM 87.8 °F 92.6 °F 69.8 °F 55% 30.11 in 10.0 mi SW 6.9 mph - N/A   Scattered Clouds
12:22 PM 87.8 °F 92.6 °F 69.8 °F 55% 30.11 in 10.0 mi SW 8.1 mph - N/A   Scattered Clouds
12:42 PM 89.6 °F 94.7 °F 69.8 °F 52% 30.10 in 7.0 mi SW 8.1 mph 18.4 mph N/A   Scattered Clouds
1:02 PM 87.8 °F 92.6 °F 69.8 °F 55% 30.10 in 10.0 mi SW 9.2 mph - N/A   Scattered Clouds
1:22 PM 87.8 °F 92.6 °F 69.8 °F 55% 30.10 in 10.0 mi WSW 5.8 mph - N/A   Scattered Clouds
1:42 PM 86.0 °F 90.4 °F 69.8 °F 58% 30.10 in 10.0 mi West 6.9 mph - N/A   Scattered Clouds
2:02 PM 87.8 °F 93.8 °F 71.6 °F 58% 30.09 in 7.0 mi West 6.9 mph - N/A   Clear
2:22 PM 87.8 °F 91.4 °F 68.0 °F 52% 30.09 in 10.0 mi SSW 9.2 mph 16.1 mph N/A   Scattered Clouds
2:42 PM 89.6 °F 92.2 °F 66.2 °F 46% 30.09 in 10.0 mi SW 11.5 mph - N/A   Scattered Clouds
3:02 PM 91.4 °F 94.0 °F 66.2 °F 43% 30.08 in 10.0 mi SSW 8.1 mph - N/A   Clear
3:22 PM 91.4 °F 96.8 °F 69.8 °F 49% 30.07 in 10.0 mi SSE 10.4 mph - N/A   Scattered Clouds
3:43 PM 91.4 °F 95.4 °F 68.0 °F 46% 30.07 in 10.0 mi South 8.1 mph - N/A   Scattered Clouds
4:02 PM 91.4 °F 94.0 °F 66.2 °F 43% 30.06 in 7.0 mi South 9.2 mph - N/A   Scattered Clouds
4:22 PM 89.6 °F 93.4 °F 68.0 °F 49% 30.06 in 10.0 mi SSW 8.1 mph - N/A   Clear
4:42 PM 91.4 °F 95.4 °F 68.0 °F 46% 30.06 in 10.0 mi South 8.1 mph - N/A   Clear
5:02 PM 89.6 °F 93.4 °F 68.0 °F 49% 30.05 in 10.0 mi South 9.2 mph - N/A   Scattered Clouds
5:22 PM 89.6 °F 92.2 °F 66.2 °F 46% 30.05 in 10.0 mi South 8.1 mph - N/A   Clear
5:42 PM 87.8 °F 91.4 °F 68.0 °F 52% 30.04 in 10.0 mi SSE 8.1 mph - N/A   Clear
6:02 PM 89.6 °F 94.7 °F 69.8 °F 52% 30.03 in 10.0 mi South 6.9 mph - N/A   Clear
6:23 PM 89.6 °F 92.2 °F 66.2 °F 46% 30.02 in 10.0 mi South 10.4 mph - N/A   Clear
6:42 PM 89.6 °F 92.2 °F 66.2 °F 46% 30.02 in 10.0 mi South 8.1 mph - N/A   Clear
7:02 PM 87.8 °F 90.4 °F 66.2 °F 49% 30.02 in 10.0 mi SSE 9.2 mph - N/A   Clear
7:23 PM 87.8 °F 90.4 °F 66.2 °F 49% 30.02 in 10.0 mi SSE 6.9 mph - N/A   Clear
7:42 PM 86.0 °F 89.4 °F 68.0 °F 55% 30.02 in 10.0 mi SSE 4.6 mph - N/A   Clear
8:02 PM 84.2 °F 87.3 °F 68.0 °F 58% 30.01 in 10.0 mi South 6.9 mph - N/A   Clear
8:23 PM 82.4 °F 85.4 °F 68.0 °F 62% 30.01 in 10.0 mi SSE 4.6 mph - N/A   Clear
8:42 PM 80.6 °F 83.2 °F 68.0 °F 65% 30.00 in 10.0 mi SE 3.5 mph - N/A   Clear
9:02 PM 78.8 °F - 68.0 °F 69% 30.01 in 10.0 mi Calm Calm - N/A   Clear
9:23 PM 77.0 °F - 68.0 °F 74% 30.02 in 10.0 mi Calm Calm - N/A   Clear
9:42 PM 75.2 °F - 68.0 °F 78% 30.03 in 10.0 mi Calm Calm - N/A   Clear
10:02 PM 75.2 °F - 68.0 °F 78% 30.04 in 10.0 mi Calm Calm - N/A   Clear
10:22 PM 75.2 °F - 68.0 °F 78% 30.04 in 10.0 mi Calm Calm - N/A   Clear
10:42 PM 75.2 °F - 68.0 °F 78% 30.05 in 10.0 mi ESE 3.5 mph - N/A   Clear
11:02 PM 73.4 °F - 69.8 °F 88% 30.04 in 10.0 mi SE 5.8 mph - N/A   Clear
11:22 PM 75.2 °F - 69.8 °F 83% 30.05 in 10.0 mi SSE 6.9 mph - N/A   Clear
11:42 PM 75.2 °F - 69.8 °F 83% 30.05 in 10.0 mi SSE 5.8 mph - N/A   Clear